www.pogodaiklimat.ru

Погода и климат >> Архив погоды >> Греция >> Karpathos


ПОГОДА в Karpathos

  • Прогноз погоды в Karpathos
  • Монитор погоды в Karpathos
  • Климат города

АРХИВ ПОГОДЫ в Karpathos

Время (UTC), дата Ветер
(напр.,м/с)
 
Видим.   Явления Облачность Т
(С)
Тd
(С)
f
(%)
Тe
(С)
Тes
(С)
Комфортность P
(гПа)
Po
(гПа)
Тmin
(С)
Tmax
(С)
R
(мм)
R24
(мм)
S
(см)
18 12.07 СЗ 11
{19}
10 км 1/1 300 м
[Cu hum]
+25.4 +21.7 80 +33 +33 очень
душно
1007.1 1007.0 +29.6
21 12.07 З 12
{18}
10 км 1/1 300 м
[Cu hum]
+25.2 +21.9 82 +32 +32 очень
душно
1007.0 1007.0
00 13.07 СЗ 13
{18}
н/о н/о +25.0 +21.8 82 +32 +32 очень
душно
1005.8 1003.9
03 13.07 З 14
{20}
10 км 1/1 300 м
[Cu hum]
+25.0 +21.8 82 +32 +32 очень
душно
1005.2 1005.0
06 13.07 З 15
{22}
10 км 1/1 300 м
[Cu hum]
+26.8 +21.3 72 +34 +34 очень
душно
1005.5 1006.0 +24.8
09 13.07 З 16
{24}
10 км 1/1 300 м
[Cu hum]
+28.6 +21.2 64 +36 +36 очень
душно
1005.7 1006.0
12 13.07 СЗ 14
{22}
10 км ясно +29.0 +20.7 61 +36 +36 очень
душно
1005.7 1006.0
15 13.07 З 13
{23}
10 км ясно +28.6 +20.7 62 +35 +35 очень
душно
1004.7 1005.0
18 13.07 СЗ 11
{21}
10 км 1/1 300 м
[Cu hum]
+26.0 +21.2 75 +33 +33 очень
душно
1004.5 1005.0 +29.7
21 13.07 С 5
{19}
н/о н/о +25.7 +21.3 77 +33 +33 очень
душно
1005.9 1004.0
00 14.07 СЗ 15
{20}
н/о н/о +25.9 +20.7 73 +32 +32 очень
душно
1002.8 1000.9
03 14.07 СЗ 16
{23}
10 км 1/1 300 м
[Cu hum]
+25.6 +19.8 70 +31 +31 очень
душно
1002.3 1002.0
06 14.07 СЗ 15
{22}
10 км ясно +27.2 +19.4 62 +33 +33 очень
душно
1003.4 1003.0 +25.5
09 14.07 СЗ 15
{24}
10 км ясно +29.2 +18.6 53 +34 +34 очень
душно
1004.0 1004.0
12 14.07 СЗ 17
{25}
10 км ясно +30.2 +18.6 50 +35 +35 очень
душно
1003.0 1003.0
15 14.07 СЗ 15
{25}
10 км ясно +30.0 +18.1 49 +35 +35 очень
душно
1003.0 1003.0
18 14.07 СЗ 15
{24}
10 км ясно +27.6 +18.0 56 +32 +32 очень
душно
1003.3 1003.0 +30.6
21 14.07 СЗ 12
{20}
н/о н/о +26.7 +17.8 58 +31 +31 душно 1004.4 1002.5
00 15.07 СЗ 11
{19}
н/о н/о +25.7 +19.0 67 +31 +31 очень
душно
1004.2 1002.3
03 15.07 СЗ 12
{17}
10 км ясно +25.4 +18.1 64 +30 +30 душно 1003.7 1004.0
06 15.07 СЗ 13
{16}
10 км ясно +26.8 +19.0 62 +32 +32 очень
душно
1004.6 1005.0 +25.1
09 15.07 СЗ 12
{18}
10 км ясно +28.8 +18.5 54 +34 +34 очень
душно
1005.7 1006.0
12 15.07 СЗ 13
{19}
10 км ясно +30.2 +17.0 45 +34 +34 очень
душно
1005.4 1005.0
15 15.07 СЗ 11
{19}
10 км ясно +28.8 +17.9 52 +33 +33 очень
душно
1005.5 1006.0
18 15.07 СЗ 13
{19}
10 км ясно +26.0 +17.8 61 +30 +30 душно 1005.2 1005.0 +30.4
21 15.07 СЗ 13
{20}
н/о н/о +25.4 +18.4 65 +30 +30 душно 1005.4 1003.5
00 16.07 СЗ 13
{20}
н/о н/о +25.2 +18.3 66 +30 +30 душно 1005.1 1003.1
03 16.07 СЗ 6
{20}
10 км ясно +24.6 +18.8 70 +29 +29 душно 1005.8 1006.0
06 16.07 СЗ 15
{20}
10 км ясно +26.8 +19.1 63 +32 +32 очень
душно
1004.7 1005.0 +24.6
09 16.07 СЗ 13
{22}
10 км ясно +28.8 +18.1 52 +33 +33 очень
душно
1006.3 1006.0
12 16.07 СЗ 14
{21}
10 км ясно +30.6 +16.3 42 +34 +34 очень
душно
1006.2 1006.0
15 16.07 СЗ 11
{22}
10 км ясно +29.6 +17.9 49 +34 +34 очень
душно
1007.1 1007.0
18 16.07 СЗ 14
{18}
10 км ясно +27.4 +15.6 49 +30 +30 жарко 1006.7 1007.0 +30.9
21 16.07 З 11
{17}
н/о н/о +26.2 +17.7 60 +31 +31 очень
душно
1008.0 1006.0
00 17.07 СЗ 10
{16}
н/о н/о +24.8 +19.6 73 +30 +30 душно 1007.4 1005.5
03 17.07 СЗ 7
{14}
н/о н/о +25.2 +18.0 64 +30 +30 душно 1008.1 1006.2
06 17.07 СЗ 9
{13}
10 км ясно +28.0 +16.9 51 +32 +32 душно 1008.2 1008.0 +25.3
09 17.07 СЗ 11
{16}
10 км ясно +31.0 +15.2 38 +33 +34 душно 1008.5 1009.0
12 17.07 ЮЗ 9
{15}
10 км ясно +30.6 +18.2 48 +35 +37 очень
душно
1008.9 1009.0
15 17.07 СЗ 8
{12}
10 км ясно +30.2 +18.0 48 +35 +36 очень
душно
1007.8 1008.0
18 17.07 З 7
{10}
10 км ясно +26.2 +22.3 79 +34 +34 очень
душно
1007.2 1007.0 +32.0
21 17.07 З 9
{13}
10 км ясно +27.6 +17.3 53 +32 +32 очень
душно
1007.1 1007.0
00 18.07 ЮЗ 5
{11}
н/о н/о +26.7 +18.2 60 +31 +31 душно 1006.0 1004.1
03 18.07 СЗ 8
{13}
н/о н/о +26.1 +19.4 67 +32 +32 очень
душно
1004.4 1002.5
06 18.07 З 12
{16}
10 км 5/5 300 м
[Cu hum]
+26.8 +22.2 76 +35 +35 очень
душно
1005.0 1005.0 +25.7
09 18.07 З 8
{15}
9000 м дымка 9/9 450 м
[St]
+28.0 +22.9 74 +37 +38 очень
душно
1005.5 1006.0
12 18.07 З 10
{13}
9000 м дымка 5/5 300 м
[Cu hum]
+29.0 +23.1 71 +39 +40 очень
душно
1005.3 1005.0
15 18.07 З 13
{18}
10 км 1/1 300 м
[Cu hum]
+28.4 +20.1 61 +35 +35 очень
душно
1004.0 1004.0
18 18.07 З 12
{18}
10 км 1/1 300 м
[Cu hum]
+25.6 +21.4 78 +33 +33 очень
душно
1004.5 1005.0 +29.3
21 18.07 З 7
{16}
н/о н/о +24.8 +21.2 80 +31 +31 очень
душно
1005.3 1003.3
00 19.07 З 12
{19}
н/о н/о +24.6 +20.5 78 +31 +31 очень
душно
1004.5 1002.6
03 19.07 СЗ 5
{14}
10 км 1/1 600 м
[Cu hum]
+24.4 +20.6 79 +30 +30 очень
душно
1005.3 1005.0
06 19.07 З 12
{17}
10 км 1/1 600 м
[Cu hum]
+27.0 +19.8 65 +33 +33 очень
душно
1005.0 1005.0 +24.4
09 19.07 З 11
{19}
10 км 1/1 600 м
[Cu hum]
+29.2 +19.8 57 +35 +36 очень
душно
1006.2 1006.0
12 19.07 З 8
{16}
10 км 1/1 600 м
[Cu hum]
+29.2 +20.7 60 +36 +39 очень
душно
1007.2 1007.0

 

Местоположение метеостанции Karpathos (Греция): широта 35.52 долгота 27.25 высота над уровнем моря 6 м.

В архиве по умолчанию представлена погода в Karpathos за последнюю неделю. Архивные данные за месяц целиком и за предыдущие месяцы, начиная с января 2011 года, Вы можете получить, выбрав интересующий диапазон дат из раскрывающегося списка и нажав кнопку "Ввод!".


*Определитесь, кто Вы:
робот инопланетянин человек

Внимание! Время в таблицах - всемирное. Для получения местного времени необходимо прибавить поправку, которая в Karpathos равна 2 ч.

Смотрите также архив погоды в соседних городах и на ближайших метеорологических станциях:

Погода в Sitia (Греция) (110 км)
Погода в Rhodes (Греция) (123 км)
Погода в Datca (Турция) (137 км)
Погода в Kos Airport (Греция) (141 км)
Погода в Bodrum (Турция) (169 км)
Погода в Marmaris (Турция) (174 км)
Погода в Kasteli (Греция) (179 км)
Погода в Heraklion (Греция) (189 км)
Погода в Dalaman (Турция) (190 км)
Погода в Bodrum Milas (Турция) (194 км)

Пояснения к столбцам:

Ветер - указаны скорость ветра в м/с - средняя за 10 мин, порывы в срок и между сроками (в фигурных скобках) и направление, откуда дует ветер: С - северный, СВ - северо-восточный, В - восточный, ЮВ - юго-восточный, Ю - южный, ЮЗ - юго-западный, З - западный, СЗ - северо-западный.
Видимость - горизонтальная дальность видимости в метрах или километрах. При видимости от 1 до 10 км при отсутствии осадков обычно наблюдается дымка, при ухудшении видимости до 1 км и менее - туман. В сухую погоду видимость может ухудшаться дымом, пылью или мглою.
Явления - указаны атмосферные явления, наблюдавшиеся в срок или в последний час перед сроком; фигурными скобками обозначены явления, наблюдавшиеся между сроками (за 1-3 часа до срока); квадратными скобками обозначены град или гололедные отложения с указанием их диаметра в мм.
Облачность - указаны через наклонную черту общая и нижняя облачность в баллах и высота нижней границы облаков в метрах; квадратными скобками обозначены формы облаков: Ci - перистые, Cs - перисто-слоистые, Cc - перисто-кучевые, Ac - высококучевые, As - высокослоистые, Sc - слоисто-кучевые, Ns - слоисто-дождевые, Cu - кучевые, Cb - кучево-дождевые. Подробнее классификацию облаков см. в Атласе облаков (PDF).
T - Температура воздуха - температура, измеренная на высоте 2 м над землей.
Td - Температура точки росы - температура, при понижении до которой содержащийся в воздухе водяной пар достигнет насыщения.
f - Относительная влажность воздуха - влажноcть воздуха, измеренная на высоте 2 м над землей.
Te - Эффективная температура - температура, которую ощущает одетый по сезону человек в тени. Характеристика душности погоды. При расчете учитывается влияние влажности воздуха и скорости ветра на теплоощущения человека.
Tes - Эффективная температура на солнце - температура, которую ощущает человек, с поправкой на солнечный нагрев. Характеристика знойности погоды. Зависит от высоты солнца над горизонтом, облачности и скорости ветра. Ночью, в пасмурную погоду, а также при ветре 12 м/с и более поправка равна нулю.
P - Атмосферное давление - приведенное к уровню моря атмосферное давление.
Po - Атмосферное давление - измеренное на уровне метеостанции атмосферное давление.
Tmin - Минимальная температура - минимум температуры воздуха на высоте 2 м над землей.
Tmax - Максимальная температура - максимум температуры воздуха на высоте 2 м над землей.
R - Количество осадков - Количество выпавших осадков за период времени, мм. При наведении курсора мыши на число - период времени, за который выпало указанное количество осадков.
R24 - Количество осадков - Количество выпавших осадков за 24 часа, мм.
S - Снежный покров - Высота снежного покрова, см. При наведении курсора мыши на число - состояние снежного покрова и степень покрытия местности в баллах.